DateTimeUTC,F1_A11,F1_S11,BsB_S11,BsG_S11,BsR_S11,BbsB_S11,BbsG_S11,BbsR_S11,BaB_A11,BaG_A11,BaR_A11,Tu_S11,T_S11,Uu_S11,U_S11,P_S11,T1_A11
2021-11-06T05:00:00Z,00000200,21000000,,,,,,,-000.11,-000.36,0000.30,19.0,26.0,,00.0,0648.7,31.0
2021-11-06T05:01:00Z,00000200,21000000,,,,,,,0000.28,-000.15,-000.26,19.0,26.0,,00.0,0648.7,31.0
2021-11-06T05:02:00Z,00000200,21000000,,,,,,,-000.22,0000.05,0000.28,18.9,26.0,,00.0,0648.7,31.0
2021-11-06T05:03:00Z,00000200,61000000,,,,,,,0000.52,0000.44,0000.16,18.9,26.0,,00.0,0648.7,31.0
2021-11-06T05:04:00Z,00000200,41000000,0000.19,0000.35,0000.02,-000.52,0000.27,0000.08,0000.12,0000.17,-000.02,18.8,25.7,,00.0,0649.5,31.0
2021-11-06T05:05:00Z,00000200,01000000,0000.56,0000.50,0000.26,0000.04,0000.27,-000.02,-000.02,0000.40,0000.33,18.8,25.6,,00.0,0649.6,31.0
2021-11-06T05:06:00Z,00000200,01000000,0000.42,0000.21,0000.01,0000.05,0000.18,0000.10,0000.45,-000.11,-000.04,18.8,25.6,,00.0,0649.6,31.0
2021-11-06T05:07:00Z,00000200,01000000,0001.43,0000.53,0000.04,0000.07,0000.09,0000.18,0000.13,0000.45,0000.56,18.8,25.6,,00.0,0649.6,31.0
2021-11-06T05:08:00Z,00000200,01000000,0000.74,0000.32,0000.20,0000.21,-000.07,0000.14,0000.39,0000.09,-000.29,18.9,25.6,,00.0,0649.6,31.0
2021-11-06T05:09:00Z,00000200,01000000,-000.41,0000.38,-000.16,0000.33,-000.07,0000.12,0000.24,0000.19,0000.17,18.9,25.6,,00.0,0649.6,31.0
2021-11-06T05:10:00Z,00000200,01000000,0000.65,0000.43,0000.05,0000.34,0000.16,0000.12,0000.05,0000.20,0000.27,19.0,25.6,,00.0,0649.7,31.0
2021-11-06T05:11:00Z,00000200,01000000,-000.36,0000.37,-000.14,0000.00,0000.40,-000.10,0000.16,0000.56,0000.08,19.0,25.6,,00.0,0649.7,31.0
2021-11-06T05:12:00Z,00000200,01000000,0000.12,0000.56,0000.03,0000.41,0000.27,0000.25,0000.25,-000.23,0000.03,19.0,25.6,,00.0,0649.7,31.0
2021-11-06T05:13:00Z,00000200,01000000,0000.03,0000.64,0000.29,0000.33,-000.15,0000.23,0000.17,0000.32,0000.51,19.1,25.6,,00.0,0649.7,31.0
2021-11-06T05:14:00Z,00000200,01000000,0001.05,0000.67,0000.02,0000.33,0000.21,0000.10,0000.05,0000.22,-000.34,19.1,25.6,,00.0,0649.6,31.0
2021-11-06T05:15:00Z,00000200,01000000,0000.26,0000.46,-000.36,0000.36,0000.54,-000.18,0000.52,-000.09,0000.46,19.1,25.6,,00.0,0649.6,31.0
2021-11-06T05:16:00Z,00000200,01000000,0000.45,0000.56,-000.04,0000.01,0000.12,0000.07,-000.03,0000.42,-000.17,19.1,25.6,,00.0,0649.6,31.0
2021-11-06T05:17:00Z,00000200,01000000,-000.32,0000.25,0000.19,-000.29,0000.16,0000.06,0000.79,0000.47,0000.38,19.0,25.6,,00.0,0649.6,31.0
2021-11-06T05:18:00Z,00000200,01000000,0001.27,0000.88,0000.27,0000.43,0000.18,0000.31,0005.78,0005.00,0004.25,18.9,25.6,,00.0,0649.6,31.0
2021-11-06T05:19:00Z,00000200,01000000,0002.78,0001.45,0000.95,0000.46,0000.51,0000.20,0017.29,0016.74,0013.02,18.9,25.5,,00.0,0649.6,31.0
2021-11-06T05:20:00Z,00000200,01000000,0003.83,0003.34,0001.85,0001.37,0000.48,0000.82,0044.13,0040.62,0033.17,18.9,25.5,,00.0,0649.6,31.0
2021-11-06T05:21:00Z,00000200,01000000,0005.38,0003.50,0002.11,0001.29,0000.68,0000.52,0051.16,0047.69,0038.84,18.9,25.5,,00.0,0649.6,31.0
2021-11-06T05:22:00Z,00000200,01000000,0007.16,0005.53,0002.51,0001.45,0001.06,0000.92,0075.93,0070.34,0057.11,18.9,25.5,,00.0,0649.6,31.0
2021-11-06T05:23:00Z,00000200,01000000,0012.46,0009.22,0005.70,0002.30,0002.12,0001.43,0143.38,0133.49,0108.14,18.9,25.5,,00.0,0649.6,31.0
2021-11-06T05:24:00Z,00000200,01000000,0010.91,0007.85,0004.98,0002.47,0001.89,0001.29,0127.41,0118.85,0096.48,19.0,25.5,,00.0,0649.6,31.0
2021-11-06T05:25:00Z,00000200,01000000,0017.02,0012.99,0007.96,0003.59,0003.00,0002.10,0199.95,0185.38,0150.10,19.0,25.5,,00.0,0649.7,31.0
2021-11-06T05:26:00Z,00000200,01000000,0014.72,0011.72,0006.82,0002.69,0002.97,0002.28,0183.00,0171.34,0139.45,19.1,25.5,,00.0,0649.7,31.0
2021-11-06T05:27:00Z,00000200,01000000,0015.33,0011.17,0006.84,0002.70,0002.23,0002.01,0175.53,0163.47,0132.53,19.1,25.6,,00.0,0649.7,31.0
2021-11-06T05:28:00Z,00000200,01000000,0014.53,0011.28,0006.98,0002.72,0002.30,0001.72,0173.55,0161.82,0131.64,19.1,25.6,,00.0,0649.7,31.1
2021-11-06T05:29:00Z,00000200,01000000,0014.83,0010.67,0006.97,0002.77,0002.41,0002.18,0169.06,0157.41,0128.27,19.2,25.6,,00.0,0649.7,31.0
2021-11-06T05:30:00Z,00000200,01000000,0009.73,0007.70,0004.70,0002.56,0001.77,0001.33,0124.16,0115.64,0093.68,19.2,25.6,,00.0,0649.7,31.0
2021-11-06T05:31:00Z,00000200,01000000,0012.24,0009.92,0005.87,0002.73,0002.38,0001.74,0146.88,0136.66,0110.90,19.1,25.6,,00.0,0649.7,31.0
2021-11-06T05:32:00Z,00000200,01000000,0015.86,0012.03,0007.26,0003.27,0003.48,0002.35,0191.66,0179.01,0145.71,19.0,25.5,,00.0,0649.7,31.0
2021-11-06T05:33:00Z,00000200,01000000,0014.48,0010.83,0006.59,0002.48,0002.40,0001.81,0171.12,0159.11,0130.25,18.9,25.5,,00.0,0649.6,31.0
2021-11-06T05:34:00Z,00000200,01000000,0017.43,0013.23,0008.33,0003.83,0003.19,0002.31,0188.14,0175.28,0142.34,18.8,25.4,,00.0,0649.7,31.0
2021-11-06T05:35:00Z,00000200,01000000,0020.83,0015.85,0009.91,0004.04,0004.03,0002.64,0233.32,0218.13,0178.04,18.8,25.4,,00.0,0649.6,31.0
2021-11-06T05:36:00Z,00000200,01000000,0019.80,0015.48,0009.93,0004.33,0003.80,0002.88,0233.74,0218.63,0179.20,18.8,25.4,,00.0,0649.6,31.0
2021-11-06T05:37:00Z,00000200,01000000,0018.23,0013.88,0008.53,0003.42,0003.46,0002.45,0204.52,0190.41,0156.08,18.9,25.4,,00.0,0649.7,31.0
2021-11-06T05:38:00Z,00000200,01000000,0016.95,0012.47,0007.91,0003.63,0003.07,0002.14,0195.82,0183.63,0149.79,18.9,25.5,,00.0,0649.6,31.0
2021-11-06T05:39:00Z,00000200,01000000,0019.71,0014.90,0009.35,0004.46,0003.84,0002.67,0226.81,0211.57,0172.96,18.9,25.4,,00.0,0649.6,31.0
2021-11-06T05:40:00Z,00000200,01000000,0021.12,0016.11,0009.76,0005.04,0003.69,0002.51,0243.97,0227.70,0186.97,18.9,25.5,,00.0,0649.6,31.0
2021-11-06T05:41:00Z,00000200,01000000,0017.47,0012.45,0007.85,0003.50,0003.23,0002.37,0185.51,0174.04,0142.54,19.0,25.5,,00.0,0649.6,31.1
2021-11-06T05:42:00Z,00000200,01000000,0015.33,0011.48,0007.36,0003.00,0002.86,0002.08,0174.58,0163.79,0134.60,19.0,25.5,,00.0,0649.6,31.0
2021-11-06T05:43:00Z,00000200,01000000,0007.62,0005.64,0003.77,0001.23,0001.43,0001.25,0080.56,0075.35,0061.98,19.1,25.5,,00.0,0649.6,31.0
2021-11-06T05:44:00Z,00000200,01000000,0003.87,0002.87,0001.70,0000.80,0000.35,0000.40,0040.15,0037.63,0031.02,19.0,25.5,,00.0,0649.6,31.0
2021-11-06T05:45:00Z,00000200,01000000,0000.30,0000.66,0000.20,-000.03,0000.19,-000.08,0007.83,0007.42,0006.27,18.9,25.5,,00.0,0649.5,31.0
2021-11-06T05:46:00Z,00000200,01000000,0000.34,0000.16,0000.07,0000.56,0000.30,0000.22,0002.69,0002.35,0001.81,18.8,25.4,,00.0,0649.5,31.0
2021-11-06T05:47:00Z,00000200,01000000,0000.70,0000.97,0000.24,-000.06,0000.29,-000.03,0002.21,0002.18,0001.37,18.7,25.4,,00.0,0649.4,30.9
2021-11-06T05:48:00Z,00000200,01000000,0000.22,0000.48,-000.14,-000.65,0000.00,0000.09,0001.62,0001.43,0001.47,18.6,25.3,,00.0,0649.5,30.9
2021-11-06T05:49:00Z,00000200,01000000,0000.80,0000.47,0000.21,-000.43,0000.02,0000.25,0003.36,0003.32,0002.66,18.6,25.3,,00.0,0649.5,30.9
2021-11-06T05:50:00Z,00000200,01000000,0005.08,0003.98,0002.33,0001.34,0001.14,0000.47,0046.63,0042.63,0034.80,18.6,25.3,,00.0,0649.5,31.0
2021-11-06T05:51:00Z,00000200,01000000,0014.45,0010.74,0006.88,0002.74,0002.94,0002.17,0155.95,0146.06,0119.57,18.6,25.3,,00.0,0649.5,31.0
2021-11-06T05:52:00Z,00000200,01000000,0017.33,0013.30,0008.29,0003.79,0003.18,0002.48,0188.28,0176.18,0144.61,18.6,25.3,,00.0,0649.5,31.0
2021-11-06T05:53:00Z,00000200,01000000,0010.80,0008.31,0005.18,0002.49,0002.11,0001.45,0120.94,0113.24,0093.20,18.7,25.3,,00.0,0649.5,31.0
2021-11-06T05:54:00Z,00000200,01000000,0017.35,0013.25,0007.79,0003.78,0003.02,0002.28,0181.45,0169.31,0137.89,18.7,25.3,,00.0,0649.5,31.0
2021-11-06T05:55:00Z,00000200,01000000,0025.36,0019.36,0012.09,0005.77,0004.72,0003.38,0285.63,0266.88,0219.69,18.8,25.3,,00.0,0649.5,31.0
2021-11-06T05:56:00Z,00000200,01000000,0018.37,0013.63,0008.62,0003.78,0003.24,0002.35,0206.23,0192.92,0158.95,18.8,25.3,,00.0,0649.5,31.0
2021-11-06T05:57:00Z,00000200,41000000,,,,,,,0059.29,0056.29,0047.08,18.8,25.4,,00.0,0649.6,31.0
2021-11-06T05:58:00Z,00000200,61000000,,,,,,,0003.75,0003.86,0002.77,18.6,25.5,,00.0,0648.6,31.0
2021-11-06T05:59:00Z,00000200,21000000,,,,,,,0003.05,0002.59,0001.99,18.6,25.6,,00.0,0648.6,31.0
